Tracking 28052 objects as of 24-Sep-2023
HD Live streaming from Space Station
objects crossing your sky now

STARLINK-5347

Track STARLINK-5347 now!
10-day predictions
STARLINK-5347 is classified as:


NORAD ID: 57137
Int'l Code: 2023-090AN
Perigee: 559.2 km
Apogee: 561.2 km
Inclination: 43.0 °
Period: 95.7 minutes
Semi major axis: 6931 km
RCS: Unknown
Launch date: June 23, 2023
Source: United States (US)
Launch site: AIR FORCE EASTERN TEST RANGE (AFETR)
Your satellite tracking list
Your tracking list is empty




NASA's NSSDC Master Catalog

Two Line Element Set (TLE):
1 57137U 23090AN  23266.54054535  .00000151  00000-0  25155-4 0  9996
2 57137  43.0014 102.3253 0001461 268.7010  91.3666 15.04491298 15267
Source of the keplerian elements: AFSPC